Tracking 17828 objects as of 30-July-2016
HD Live streaming from Space Station
objects crossing your sky now

EUTELSAT 2-F4

Track EUTELSAT 2-F4 now!
EUTELSAT 2-F4 is classified as:


NORAD ID: 22028
Int'l Code: 1992-041B
Perigee: 36,086.9 km
Apogee: 36,175.0 km
Inclination: 12.5 °
Period: 1,453.4 minutes
Semi major axis: 42501 km
RCS: 3.1622 m2 (large)
Launch date: July 9, 1992
Source: European Telecommunications Satellite Organization (EUTE)
Launch site: FRENCH GUIANA (FRGUI)
Your satellite tracking list
Your tracking list is empty





NASA's NSSDC Master Catalog

Two Line Element Set (TLE):
1 22028U 92041B   16211.84624293 -.00000324 +00000-0 +00000-0 0  9999
2 22028 012.5034 034.9379 0010363 170.4344 189.0535 00.99080935011019
Source of the keplerian elements: AFSPC

N2YO: 858